Date String (YYYY-MM-DD hh:mm:ss) UTC,Instrument flags,Ambient pressure (hPa),Sample flow (lpm),Bypass flow (lpm),Sample temperature (°C),Ambient temperature (°C),ASC tube jacket temperature (°C),LED temperature (°C),Box temperature (°C),Sample RH (%),Span deviation,Mass concentration (μg/m³),Mass concentration (μg/m³),Mass concentration (μg/m³)
DateTimeUTC,F1_M11,P_M11,Q1_M11,Q2_M11,T1_M11,T2_M11,T3_M11,T4_M11,T5_M11,U1_M11,ZSPAN_M11,X0_M11,X2_M11,X1_M11
2021-10-22 11:00:00,,0828.4,5.01,0.00,26.5,25.6,00.0,35.6,28.3,10.2,0000.0,0011.71,0003.91,0002.76
2021-10-22 11:01:00,,0828.4,4.99,0.00,26.5,25.6,00.0,35.6,28.3,10.1,0000.0,0011.01,0003.90,0002.76
2021-10-22 11:02:00,,0828.4,4.99,0.00,26.5,25.6,00.0,35.6,28.3,10.1,0000.0,0010.61,0003.86,0002.72
2021-10-22 11:03:00,,0828.4,5.01,0.00,26.5,25.6,00.0,35.6,28.3,10.1,0000.0,0010.50,0003.79,0002.65
2021-10-22 11:04:00,,0828.4,4.99,0.00,26.5,25.6,00.0,35.6,28.3,10.1,0000.0,0011.37,0003.76,0002.60
2021-10-22 11:05:00,,0828.5,5.00,0.00,26.5,25.6,00.0,35.6,28.3,10.1,0000.0,0011.69,0003.72,0002.58
2021-10-22 11:06:00,,0828.4,5.00,0.00,26.5,25.6,00.0,35.6,28.3,10.1,0000.0,0011.86,0003.71,0002.58
2021-10-22 11:07:00,,0828.4,5.00,0.00,26.5,25.6,00.0,35.6,28.3,10.2,0000.0,0012.01,0003.80,0002.62
2021-10-22 11:08:00,,0828.5,5.00,0.00,26.5,25.6,00.0,35.6,28.3,10.2,0000.0,0012.78,0003.81,0002.66
2021-10-22 11:09:00,,0828.5,5.01,0.00,26.5,25.6,00.0,35.6,28.3,10.2,0000.0,0012.00,0003.84,0002.70
2021-10-22 11:10:00,,0828.5,4.99,0.00,26.5,25.6,00.0,35.6,28.3,10.2,0000.0,0011.86,0003.84,0002.72
2021-10-22 11:11:00,,0828.5,5.00,0.00,26.5,25.6,00.0,35.6,28.3,10.2,0000.0,0012.07,0003.84,0002.73
2021-10-22 11:12:00,,0828.5,5.00,0.00,26.5,25.6,00.0,35.6,28.3,10.2,0000.0,0012.22,0003.85,0002.75
2021-10-22 11:13:00,,0828.4,5.00,0.00,26.5,25.6,00.0,35.6,28.3,10.2,0000.0,0012.48,0003.88,0002.76
2021-10-22 11:14:00,,0828.5,5.00,0.00,26.5,25.6,00.0,35.6,28.3,10.2,0000.0,0012.13,0003.92,0002.76
2021-10-22 11:15:00,,0828.5,5.00,0.00,26.5,25.7,00.0,35.6,28.3,10.3,0000.0,0011.50,0003.90,0002.74
2021-10-22 11:16:00,,0828.5,5.00,0.00,26.5,25.7,00.0,35.6,28.3,10.3,0000.0,0011.74,0003.92,0002.73
2021-10-22 11:17:00,,0828.4,5.01,0.00,26.5,25.7,00.0,35.6,28.3,10.3,0000.0,0013.01,0003.96,0002.72
2021-10-22 11:18:00,,0828.5,4.99,0.00,26.5,25.7,00.0,35.6,28.3,10.3,0000.0,0013.70,0003.86,0002.67
2021-10-22 11:19:00,,0828.5,5.01,0.00,26.5,25.7,00.0,35.6,28.4,10.3,0000.0,0012.75,0003.82,0002.62
2021-10-22 11:20:00,,0828.5,4.99,0.00,26.5,25.7,00.0,35.6,28.4,10.3,0000.0,0012.84,0003.76,0002.57
2021-10-22 11:21:00,,0828.5,5.00,0.00,26.5,25.7,00.0,35.6,28.4,10.3,0000.0,0012.65,0003.69,0002.51
2021-10-22 11:22:00,,0828.5,4.99,0.00,26.5,25.7,00.0,35.6,28.4,10.3,0000.0,0012.21,0003.64,0002.47
2021-10-22 11:23:00,,0828.5,5.00,0.00,26.5,25.7,00.0,35.6,28.3,10.3,0000.0,0011.77,0003.61,0002.42
2021-10-22 11:24:00,,0828.5,4.99,0.00,26.5,25.7,00.0,35.6,28.4,10.3,0000.0,0012.31,0003.62,0002.41
2021-10-22 11:25:00,,0828.4,5.01,0.00,26.6,25.7,00.0,35.6,28.4,10.3,0000.0,0012.64,0003.62,0002.41
2021-10-22 11:26:00,,0828.5,5.00,0.00,26.5,25.7,00.0,35.6,28.4,10.3,0000.0,0012.29,0003.61,0002.40
2021-10-22 11:27:00,,0828.5,5.00,0.00,26.6,25.7,00.0,35.6,28.4,10.3,0000.0,0011.52,0003.59,0002.39
2021-10-22 11:28:00,,0828.5,4.99,0.00,26.6,25.7,00.0,35.6,28.4,10.3,0000.0,0010.16,0003.58,0002.39
2021-10-22 11:29:00,,0828.5,4.99,0.00,26.6,25.6,00.0,35.6,28.4,10.3,0000.0,0008.97,0003.60,0002.40
2021-10-22 11:30:00,,0828.5,5.02,0.00,26.6,25.6,00.0,35.6,28.4,10.3,0000.0,0008.74,0003.58,0002.39
2021-10-22 11:31:00,,0828.4,5.00,0.00,26.5,25.6,00.0,35.6,28.4,10.3,0000.0,0008.68,0003.57,0002.38
2021-10-22 11:32:00,,0828.4,5.00,0.00,26.5,25.6,00.0,35.6,28.4,10.2,0000.0,0008.67,0003.57,0002.36
2021-10-22 11:33:00,,0828.4,4.98,0.00,26.5,25.6,00.0,35.6,28.3,10.2,0000.0,0008.68,0003.55,0002.34
2021-10-22 11:34:00,,0828.4,5.00,0.00,26.5,25.6,00.0,35.6,28.4,10.2,0000.0,0008.51,0003.54,0002.33
2021-10-22 11:35:00,,0828.5,5.00,0.00,26.5,25.6,00.0,35.6,28.3,10.2,0000.0,0007.72,0003.49,0002.31
2021-10-22 11:36:00,,0828.5,5.01,0.00,26.5,25.6,00.0,35.6,28.3,10.2,0000.0,0007.48,0003.44,0002.29
2021-10-22 11:37:00,,0828.5,4.99,0.00,26.5,25.5,00.0,35.5,28.3,10.2,0000.0,0008.06,0003.44,0002.30
2021-10-22 11:38:00,,0828.4,5.00,0.00,26.5,25.6,00.0,35.5,28.3,10.1,0000.0,0008.32,0003.38,0002.30
2021-10-22 11:39:00,,0828.5,5.00,0.00,26.5,25.6,00.0,35.5,28.3,10.2,0000.0,0008.58,0003.34,0002.28
2021-10-22 11:40:00,,0828.4,5.01,0.00,26.5,25.6,00.0,35.5,28.3,10.2,0000.0,0008.59,0003.32,0002.27
2021-10-22 11:41:00,,0828.5,5.00,0.00,26.5,25.6,00.0,35.5,28.3,10.2,0000.0,0008.98,0003.33,0002.27
2021-10-22 11:42:00,,0828.5,5.00,0.00,26.5,25.6,00.0,35.5,28.3,10.1,0000.0,0009.25,0003.32,0002.26
2021-10-22 11:43:00,,0828.5,5.00,0.00,26.5,25.6,00.0,35.5,28.3,10.2,0000.0,0009.93,0003.34,0002.27
2021-10-22 11:44:00,,0828.5,5.00,0.00,26.5,25.6,00.0,35.5,28.2,10.2,0000.0,0010.19,0003.35,0002.27
2021-10-22 11:45:00,,0828.5,5.00,0.00,26.5,25.6,00.0,35.5,28.3,10.1,0000.0,0011.52,0003.32,0002.27
2021-10-22 11:46:00,,0828.4,5.00,0.00,26.5,25.6,00.0,35.5,28.3,10.1,0000.0,0011.93,0003.30,0002.25
2021-10-22 11:47:00,,0828.4,5.01,0.00,26.5,25.5,00.0,35.5,28.3,10.1,0000.0,0012.67,0003.31,0002.24
2021-10-22 11:48:00,,0828.4,5.00,0.00,26.5,25.5,00.0,35.5,28.3,10.1,0000.0,0012.66,0003.37,0002.24
2021-10-22 11:49:00,,0828.3,5.00,0.00,26.4,25.5,00.0,35.5,28.2,10.2,0000.0,0012.70,0003.42,0002.24
2021-10-22 11:50:00,,0828.4,4.99,0.00,26.4,25.5,00.0,35.5,28.2,10.2,0000.0,0012.55,0003.45,0002.24
2021-10-22 11:51:00,,0828.3,5.00,0.00,26.4,25.5,00.0,35.5,28.2,10.2,0000.0,0012.54,0003.46,0002.23
2021-10-22 11:52:00,,0828.4,5.00,0.00,26.4,25.5,00.0,35.5,28.2,10.2,0000.0,0012.36,0003.46,0002.21
2021-10-22 11:53:00,,0828.3,5.00,0.00,26.4,25.5,00.0,35.5,28.2,10.2,0000.0,0012.40,0003.47,0002.20
2021-10-22 11:54:00,,0828.3,4.99,0.00,26.4,25.5,00.0,35.5,28.2,10.2,0000.0,0012.15,0003.47,0002.20
2021-10-22 11:55:00,,0828.4,5.02,0.00,26.4,25.5,00.0,35.5,28.2,10.2,0000.0,0012.17,0003.45,0002.21
2021-10-22 11:56:00,,0828.3,4.99,0.00,26.4,25.5,00.0,35.5,28.2,10.2,0000.0,0011.30,0003.45,0002.22
2021-10-22 11:57:00,,0828.4,5.00,0.00,26.4,25.5,00.0,35.5,28.2,10.2,0000.0,0011.15,0003.48,0002.20
2021-10-22 11:58:00,,0828.3,5.00,0.00,26.4,25.4,00.0,35.5,28.2,10.2,0000.0,0010.48,0003.47,0002.21
2021-10-22 11:59:00,,0828.3,5.00,0.00,26.3,25.4,00.0,35.5,28.2,10.2,0000.0,0010.17,0003.40,0002.20
